When you browse on this site, cookies collect data to enhance your experience and personalize the content and advertising you see.
Visit our Privacy Policy to learn more. By continuing to use the site, you agree to this use of cookies and data.
EN

Hourly Weather Hadım

Today, 13 July, Monday

Time Temperature Precipitation Wind Pressure Humidity
00:00 +19°C° 0 mm 1 mps 622 mmHg 39%
01:00 +18°C° 0 mm 1 mps 622 mmHg 41%
02:00 +17°C° 0 mm 2 mps 622 mmHg 43%
03:00 +17°C° 0 mm 2 mps 622 mmHg 46%
04:00 +16°C° 0 mm 2 mps 622 mmHg 49%
05:00 +16°C° 0 mm 2 mps 622 mmHg 52%
06:00 +18°C° 0 mm 2 mps 623 mmHg 49%
07:00 +20°C° 0 mm 2 mps 624 mmHg 47%
08:00 +22°C° 0 mm 3 mps 624 mmHg 45%
09:00 +24°C° 0 mm 3 mps 625 mmHg 42%
10:00 +25°C° 0 mm 4 mps 625 mmHg 39%
11:00 +26°C° 0 mm 4 mps 625 mmHg 36%
12:00 +27°C° 0 mm 4 mps 625 mmHg 34%
13:00 +28°C° 0 mm 4 mps 625 mmHg 31%
14:00 +28°C° 0 mm 5 mps 625 mmHg 29%
15:00 +27°C° 0 mm 5 mps 625 mmHg 30%
16:00 +27°C° 0 mm 5 mps 625 mmHg 32%
17:00 +26°C° 0 mm 6 mps 624 mmHg 34%
18:00 +25°C° 0 mm 5 mps 624 mmHg 35%
19:00 +23°C° 0 mm 4 mps 624 mmHg 37%
20:00 +21°C° 0 mm 3 mps 623 mmHg 38%
21:00 +20°C° 0 mm 3 mps 623 mmHg 43%
22:00 +19°C° 0 mm 2 mps 623 mmHg 48%
23:00 +17°C° 0 mm 2 mps 623 mmHg 53%

Tomorrow, 14 July, Tuesday

Time Temperature Precipitation Wind Pressure Humidity
00:00 +17°C° 0 mm 2 mps 623 mmHg 55%
01:00 +16°C° 0 mm 2 mps 623 mmHg 58%
02:00 +16°C° 0 mm 2 mps 623 mmHg 60%
03:00 +15°C° 0 mm 2 mps 623 mmHg 63%
04:00 +15°C° 0 mm 2 mps 623 mmHg 65%
05:00 +14°C° 0 mm 2 mps 623 mmHg 68%
06:00 +16°C° 0 mm 2 mps 624 mmHg 60%
07:00 +19°C° 0 mm 2 mps 625 mmHg 53%
08:00 +21°C° 0 mm 2 mps 626 mmHg 45%
09:00 +23°C° 0 mm 2 mps 626 mmHg 41%
10:00 +25°C° 0 mm 2 mps 627 mmHg 36%
11:00 +27°C° 0 mm 3 mps 628 mmHg 32%
12:00 +27°C° 0 mm 3 mps 628 mmHg 32%
13:00 +27°C° 0 mm 3 mps 627 mmHg 32%
14:00 +28°C° 0 mm 3 mps 627 mmHg 32%
15:00 +27°C° 0 mm 3 mps 627 mmHg 34%
16:00 +26°C° 0 mm 3 mps 627 mmHg 36%
17:00 +26°C° 0 mm 3 mps 626 mmHg 39%
18:00 +24°C° 0 mm 2 mps 626 mmHg 45%
19:00 +22°C° 0 mm 1 mps 625 mmHg 51%
20:00 +20°C° 0 mm 1 mps 625 mmHg 57%
21:00 +18°C° 0 mm 0 mps 625 mmHg 59%
22:00 +17°C° 0 mm 0 mps 624 mmHg 62%
23:00 +16°C° 0 mm 0 mps 624 mmHg 64%

Day after tomorrow, 15 July, Wednesday

Time Temperature Precipitation Wind Pressure Humidity
00:00 +16°C° 0 mm 0 mps 624 mmHg 65%
01:00 +16°C° 0 mm 0 mps 624 mmHg 66%
02:00 +15°C° 0 mm 0 mps 624 mmHg 67%
03:00 +15°C° 0 mm 0 mps 624 mmHg 67%
04:00 +15°C° 0 mm 0 mps 624 mmHg 67%
05:00 +15°C° 0 mm 0 mps 624 mmHg 67%
06:00 +18°C° 0 mm 0 mps 625 mmHg 55%
07:00 +21°C° 0 mm 0 mps 627 mmHg 43%
08:00 +24°C° 0 mm 0 mps 628 mmHg 32%
09:00 +27°C° 0 mm 1 mps 629 mmHg 29%
10:00 +28°C° 0 mm 1 mps 629 mmHg 25%
11:00 +30°C° 0 mm 1 mps 630 mmHg 22%
12:00 +30°C° 0 mm 2 mps 629 mmHg 22%
13:00 +31°C° 0 mm 3 mps 629 mmHg 21%
14:00 +31°C° 0 mm 3 mps 629 mmHg 21%
15:00 +31°C° 0 mm 3 mps 629 mmHg 23%
16:00 +30°C° 0 mm 4 mps 628 mmHg 25%
17:00 +29°C° 0 mm 4 mps 628 mmHg 27%
18:00 +26°C° 0 mm 3 mps 627 mmHg 32%
19:00 +24°C° 0 mm 2 mps 626 mmHg 37%
20:00 +21°C° 0 mm 2 mps 626 mmHg 43%
21:00 +21°C° 0 mm 1 mps 625 mmHg 43%
22:00 +20°C° 0 mm 1 mps 625 mmHg 43%
23:00 +20°C° 0 mm 1 mps 625 mmHg 43%

16 July, Thursday

Time Temperature Precipitation Wind Pressure Humidity
00:00 +19°C° 0 mm 1 mps 624 mmHg 44%
01:00 +19°C° 0 mm 1 mps 624 mmHg 44%
02:00 +18°C° 0 mm 1 mps 624 mmHg 44%
03:00 +18°C° 0 mm 1 mps 623 mmHg 45%
04:00 +16°C° 0 mm 1 mps 623 mmHg 46%
05:00 +15°C° 0 mm 0 mps 623 mmHg 47%
06:00 +20°C° 0 mm 1 mps 624 mmHg 40%
07:00 +23°C° 0 mm 1 mps 625 mmHg 34%
08:00 +26°C° 0 mm 1 mps 626 mmHg 28%
09:00 +27°C° 0 mm 1 mps 627 mmHg 25%
10:00 +29°C° 0 mm 2 mps 627 mmHg 23%
11:00 +30°C° 0 mm 3 mps 627 mmHg 20%
12:00 +31°C° 0 mm 3 mps 627 mmHg 20%
13:00 +31°C° 0 mm 3 mps 627 mmHg 20%
14:00 +33°C° 0 mm 4 mps 627 mmHg 20%
15:00 +32°C° 0 mm 4 mps 626 mmHg 24%
16:00 +30°C° 0 mm 4 mps 626 mmHg 27%
17:00 +29°C° 0 mm 5 mps 625 mmHg 30%
18:00 +26°C° 0 mm 3 mps 624 mmHg 36%
19:00 +24°C° 0 mm 2 mps 624 mmHg 43%
20:00 +21°C° 0 mm 1 mps 623 mmHg 49%
21:00 +21°C° 0 mm 1 mps 623 mmHg 49%
22:00 +20°C° 0 mm 1 mps 623 mmHg 50%
23:00 +20°C° 0 mm 1 mps 623 mmHg 50%

17 July, Friday

Time Temperature Precipitation Wind Pressure Humidity
00:00 +19°C° 0 mm 1 mps 622 mmHg 54%
01:00 +18°C° 0 mm 2 mps 622 mmHg 57%
02:00 +17°C° 0 mm 2 mps 622 mmHg 61%
03:00 +17°C° 0 mm 2 mps 622 mmHg 67%
04:00 +16°C° 0 mm 2 mps 621 mmHg 74%
05:00 +15°C° 0 mm 2 mps 621 mmHg 81%
06:00 +18°C° 0 mm 2 mps 622 mmHg 72%
07:00 +20°C° 0 mm 2 mps 623 mmHg 62%
08:00 +23°C° 0 mm 2 mps 624 mmHg 53%
09:00 +24°C° 0 mm 2 mps 625 mmHg 47%
10:00 +26°C° 0 mm 2 mps 625 mmHg 40%
11:00 +28°C° 0 mm 2 mps 626 mmHg 33%
12:00 +29°C° 0 mm 3 mps 626 mmHg 31%
13:00 +30°C° 0 mm 3 mps 626 mmHg 29%
14:00 +30°C° 0 mm 3 mps 626 mmHg 27%
15:00 +30°C° 0 mm 3 mps 626 mmHg 29%
16:00 +29°C° 0 mm 3 mps 625 mmHg 32%
17:00 +29°C° 0 mm 3 mps 625 mmHg 34%
18:00 +27°C° 0 mm 2 mps 625 mmHg 42%
19:00 +25°C° 0 mm 2 mps 624 mmHg 49%
20:00 +23°C° 0 mm 1 mps 624 mmHg 56%
21:00 +22°C° 0 mm 1 mps 623 mmHg 57%
22:00 +21°C° 0 mm 1 mps 623 mmHg 59%
23:00 +20°C° 0 mm 1 mps 623 mmHg 60%

18 July, Saturday

Time Temperature Precipitation Wind Pressure Humidity
00:00 +20°C° 0 mm 1 mps 623 mmHg 60%
01:00 +20°C° 0 mm 1 mps 623 mmHg 60%
02:00 +18°C° 0 mm 2 mps 622 mmHg 61%
03:00 +19°C° 0 mm 1 mps 622 mmHg 62%
04:00 +18°C° 0 mm 1 mps 622 mmHg 64%
05:00 +18°C° 0 mm 1 mps 622 mmHg 65%
06:00 +21°C° 0 mm 1 mps 623 mmHg 56%
07:00 +23°C° 0 mm 1 mps 625 mmHg 47%
08:00 +26°C° 0 mm 1 mps 626 mmHg 39%
09:00 +27°C° 0 mm 1 mps 626 mmHg 35%
10:00 +29°C° 0 mm 2 mps 627 mmHg 31%
11:00 +30°C° 0 mm 2 mps 627 mmHg 28%
12:00 +31°C° 0 mm 2 mps 627 mmHg 27%
13:00 +31°C° 0 mm 3 mps 627 mmHg 27%
14:00 +33°C° 0 mm 3 mps 627 mmHg 26%
15:00 +31°C° 0 mm 3 mps 627 mmHg 30%
16:00 +32°C° 0 mm 4 mps 627 mmHg 33%
17:00 +30°C° 0 mm 4 mps 626 mmHg 36%
18:00 +28°C° 0 mm 3 mps 626 mmHg 44%
19:00 +25°C° 0 mm 2 mps 625 mmHg 53%
20:00 +23°C° 0 mm 1 mps 624 mmHg 61%
21:00 +22°C° 0 mm 1 mps 624 mmHg 62%
22:00 +22°C° 0 mm 1 mps 624 mmHg 62%
23:00 +21°C° 0 mm 1 mps 624 mmHg 63%
Show more